Weather Roundup
Issued by NWS Corpus Christi, TX

Home | Current Version | Previous Version | Text Only | Print | Product List | Glossary On
Versions: 1 2 3 4 5 6 7 8 9 10 11 12 13 14 15 16 17 18 19 20 21 22 23 24 25 26 27 28 29 30 31 32 33 34 35 36 37 38 39 40 41 42 43 44 45 46 47 48 49 50
000
ASUS44 KCRP 250210
HRRCRP

SOUTH TEXAS REGIONAL WEATHER ROUNDUP
NATIONAL WEATHER SERVICE CORPUS CHRISTI TX
900 PM CDT THU APR 24 2014


TXZ229>244-250300-
...CORPUS CHRISTI AREA OBSERVATIONS...

CITY           SKY/WX    TMP DP  RH WIND       PRES   REMARKS
CORPUS CHRISTI PTCLDY    75  69  81 SE9       29.84R
NAS CORPUS CHR MOCLDY    74  71  91 SE12      29.85R
ROCKPORT       CLOUDY    74  71  91 SE9       29.86R
KINGSVILLE NAS CLEAR     75  71  87 SE7       29.85R
ALICE          CLEAR     75  69  81 SE9       29.84R
FALFURRIAS     CLEAR     78  70  76 E7        29.83R
$$

...VICTORIA AREA OBSERVATIONS...

CITY           SKY/WX    TMP DP  RH WIND       PRES   REMARKS
VICTORIA       PTCLDY    73  69  87 SE9       29.87R
BEEVILLE       FAIR      74  69  82 SE7       29.85R
PLEASANTON     CLEAR     80  62  53 E3        29.84R
SAN ANTONIO    CLEAR     79  63  57 E6        29.87R
$$

...LAREDO AREA OBSERVATIONS...

CITY           SKY/WX    TMP DP  RH WIND       PRES   REMARKS
LAREDO         CLEAR     83  62  48 E5        29.84R
COTULLA        CLEAR     83  61  47 SE10      29.81R
DEL RIO        CLOUDY    86  21   9 N6        29.83R
MCALLEN        MOCLDY    79  70  74 SE15      29.82R
HEBBRONVILLE   CLEAR     80  68  65 E8        29.85R
$$

...OTHER TEXAS OBSERVATIONS...

CITY           SKY/WX    TMP DP  RH WIND       PRES   REMARKS
BROWNSVILLE    MOCLDY    75  72  90 E8        29.84R
HOUSTON        CLEAR     76  66  71 S5        29.86R
COL. STATION   PTCLDY    76  68  76 SE3       29.86R
AUSTIN         PTCLDY    72  64  76 CALM      29.86R
WACO           CLEAR     71  45  39 NW6       29.89R
FORT WORTH     PTCLDY    71  45  39 N10       29.89R
WICHITA FALLS  PTCLDY    69  43  38 E3        29.92R
LUBBOCK        CLOUDY    67  26  21 E6        29.97S
EL PASO        PTCLDY    78  11   8 CALM      29.95S
$$

...MARINE OBSERVATIONS...

STATION/POSITION TIME  SKY/WX   TEMP    WIND        PRES    VSBY  WAVE   SWELL
                                AIR SEA DIR/SP/G                  HT/PER HT/PER
                 (UTC)          (F)     (DEG/KT/KT) (MB)    (MI)  (FT/S) (FT/S)
PORT ARANSAS     0200            72 75  100/  7/  7 1011.4R
BUOY 90 E PORT A NOT AVBL
BUOY 45 SE BAFFI 0200            72 72  120/ 10/ 12 1010.4R         4/ 6   3/ 6
BUOY 200 E PT IS NOT AVBL
BUOY 15 E GALVES 0200            70 70  150/  2/  4 1012.0R         3/ 6   2/ 6
$$


USA.gov is the U.S. government's official web portal to all federal, state and local government web resources and services.